Location: *
(51.5000°N, 0.1100°W)
Time: 01:57:57
(UTC+00:00)

MSX - Pass Details

Date: 14 August 2024
Orbit: 895 x 904 km, 99.0° (Epoch: 09 September)

Event Time Altitude Azimuth Distance (km) Brightness Sun altitude
Rises 03:53:55 0° 8° (N) 3,545 7.6 -7.7°
Reaches altitude 10° 03:56:58 10° 352° (N) 2,599 6.6 -7.4°
Maximum altitude 04:00:56 20° 309° (NW) 1,991 5.5 -6.8°
Drops below altitude 10° 04:04:55 10° 265° (W) 2,588 5.7 -6.3°
Enters shadow 04:06:14 - 256° (WSW) 2,967 5.9 -6.1°
